Location: Mauries
(43.6188°N, 0.3322°W)
Time: 12:21:57
(UTC+00:00)

Envisat - Pass Details

Date: 17 March 2026
Orbit: 761 x 762 km, 98.4° (Epoch: 14 April)

Event Time Altitude Azimuth Distance (km) Brightness Sun altitude
Rises 01:29:33 0° 29° (NNE) 3,232 7.0 -44.2°
Reaches altitude 10° 01:32:36 10° 48° (NE) 2,301 6.0 -43.9°
Enters shadow 01:32:41 10° 49° (NE) 2,278 6.0 -43.9°
